Vertical_Velocity
-2 -3 7 4 -2 -3 -2 -1 -3 10 -0 -12 -1 -7 9 -15 -3 4 1 -3 -4 2 4 0 -2 2 5 2 -1 2 1 -1 2 1 -1 -2 -0 0 -1 -2 -2 -2 -2 0
-1 8 -10 -4 -0 -4 -2 -2 14 5 7 -22 5 -3 6 -5 -2 -4 1 -1 2 -3 -1 6 2 -1 2 2 -0 2 1 1 1 0 -1 1 -2 0 0 -1 -2 -2 -2 -1
-5 15 -0 -2 1 -1 4 -5 11 -11 -1 -14 2 -29 -1 17 -14 -0 10 8 1 0 -0 -0 -2 0 3 3 6 2 -0 1 5 1 1 0 1 -1 1 -1 -1 -1 -2 -1
-7 8 0 -7 4 -3 -7 7 -5 3 -10 -15 3 -98 -12 4 11 -3 10 0 5 -0 -1 -1 -1 -1 4 9 -2 -1 1 5 4 2 1 0 1 -0 -1 -1 -0 -0 -1 -1
15 11 -2 -3 11 -19 13 -4 -3 -0 -0 -4 14 -33 39 14 13 27 4 -4 -1 5 -2 2 1 -0 0 -4 2 -1 1 4 5 2 3 -1 0 -2 -1 -1 -0 -0 -1 -2
12 -5 2 8 5 -1 2 1 -0 1 5 -49 87 3 -67 9 6 9 6 0 2 4 0 2 -1 0 6 1 2 5 2 5 4 1 -0 -1 -2 -1 -2 1 -1 0 -1 -2
-2 2 5 -7 -10 0 4 12 -19 -28 -2 -55 36 -19 -46 -5 17 2 3 8 -0 -3 -1 -1 3 4 2 -1 -1 -3 -0 5 1 0 -0 -2 -1 1 -2 1 -0 0 -3 -3
-9 11 19 12 5 -1 0 6 -4 -2 -4 -9 5 -69 -20 5 3 8 7 2 0 6 2 5 2 1 3 3 1 -2 1 3 -2 -2 0 -1 -0 -2 -2 -0 1 -2 -2 -2
-21 2 7 8 7 5 34 -10 29 -13 13 -15 13 -27 -29 7 13 15 6 1 1 2 0 4 2 5 5 3 1 0 1 2 1 -2 1 2 -1 -2 -2 -1 -1 -1 -1 -3
-3 -56 4 9 7 17 -4 15 -1 19 -33 3 -51 -10 -38 11 17 13 2 5 9 1 0 2 5 7 6 4 1 1 3 1 -0 2 1 -0 1 -0 -2 0 -2 -2 -1 -2
-11 -19 20 9 22 10 22 -6 8 16 -5 -9 -20 -36 11 4 12 13 9 1 4 -0 0 -1 1 5 5 4 4 2 2 -1 1 1 -2 1 0 0 -0 -0 -0 -1 -0 -1
17 -17 -37 -7 12 6 5 4 7 11 -13 -12 -5 -133 5 11 10 -5 6 2 9 10 3 6 1 1 0 3 2 4 2 -1 -1 -1 0 1 0 1 0 0 -1 1 -0 -0
3 4 -32 -24 12 -3 13 14 13 13 6 -21 28 -88 6 -10 4 3 -20 -7 1 4 1 1 2 4 8 3 3 3 4 2 2 1 2 1 -0 0 -1 -0 1 -0 -1 -1
-8 5 12 -24 -6 0 8 22 15 22 2 6 -1 -7 15 4 -6 -13 9 2 7 4 5 3 2 -1 0 -2 -2 2 2 1 3 -0 3 3 2 -0 -0 1 -1 0 -1 -1
3 -9 4 6 -3 1 -5 -2 8 2 11 25 -9 16 -38 4 -16 2 10 2 -2 7 6 -9 -3 3 2 4 8 6 2 3 -4 0 2 1 -1 1 -1 0 -1 -1 -1 -0
11 -20 -8 -30 15 11 -13 -10 -1 -1 12 3 6 -3 27 -2 -11 0 11 0 3 2 -7 14 -6 -7 4 7 2 -1 1 4 -3 2 4 0 0 0 1 -0 1 -1 -1 1
-6 1 8 -28 3 4 -23 -3 11 7 6 13 -2 -22 -7 -4 3 7 9 4 0 6 5 -6 8 1 -17 4 5 1 0 -4 -2 4 4 2 1 2 1 -1 0 -1 1 1
-12 2 8 -3 3 -8 1 13 13 16 7 6 1 2 -9 -23 -16 19 2 -0 -0 2 4 4 5 9 3 -12 2 -1 2 3 2 1 1 1 3 1 -0 -0 -2 1 2 -1
8 6 -6 -0 3 -17 -8 13 -6 2 1 -4 29 27 6 1 -23 25 -12 -11 -2 1 4 6 7 7 2 -0 -2 -5 -3 -2 0 4 2 0 0 -1 1 -2 0 1 -0 -0
3 4 10 -3 5 -16 -8 13 10 11 -7 11 3 35 -2 -1 -9 7 3 -17 -2 -5 1 5 16 4 1 9 3 -1 -3 -2 6 7 -1 -0 0 2 -1 -0 2 -1 -1 1
6 4 -6 6 5 -28 19 -2 6 12 -23 20 7 -9 -0 -2 -7 6 -5 -3 -20 -3 -2 3 18 13 -4 1 -1 2 -4 4 4 -2 1 2 0 1 1 2 -2 -2 1 1
-5 -8 -0 -4 -2 -31 15 7 -0 10 -12 -18 1 6 -4 -11 3 -3 5 -1 -6 -16 -10 14 14 13 -2 4 0 4 1 1 -2 -0 3 1 0 1 1 -2 -1 -1 0 2
-12 8 -12 15 -5 12 -4 -4 15 -5 -27 6 -24 8 -8 0 7 8 0 2 -3 -4 6 9 -5 0 0 -2 3 -2 5 -3 2 3 1 -2 -0 -0 -0 0 -1 -1 0 1
2 13 -8 -15 46 -9 1 10 9 -0 -9 -4 -0 -7 -5 -8 -2 5 5 13 2 -7 4 -0 5 -2 6 -1 -2 -3 1 2 1 -1 -1 -0 -1 1 1 -2 0 -1 -2 0
29 9 3 -16 3 -34 29 3 -1 13 7 1 5 -2 -2 -12 3 1 0 1 11 9 11 -2 0 1 -8 -3 -2 4 -1 -2 -2 -2 1 0 1 1 -0 1 2 -2 0 1
10 15 2 -24 1 -23 4 7 3 -8 -6 -3 -7 -1 -0 -20 -9 -6 2 -6 8 9 31 26 2 12 10 -4 2 3 1 3 5 4 3 0 -1 -0 0 1 1 0 0 -1
Height
5862 5863 5869 5866 5860 5858 5859 5858 5859 5862 5861 5856 5855 5853 5860 5858 5853 5857 5857 5855 5856 5857 5855 5853 5852 5851 5851 5851 5850 5849 5848 5847 5848 5848 5847 5846 5844 5842 5839 5837 5834 5832 5830 5828
5859 5858 5859 5856 5853 5852 5851 5849 5850 5852 5852 5842 5841 5842 5845 5850 5848 5845 5845 5845 5845 5843 5842 5841 5840 5840 5841 5841 5840 5839 5839 5838 5838 5839 5838 5837 5835 5833 5831 5828 5825 5823 5821 5819
5849 5853 5852 5849 5846 5842 5843 5841 5840 5838 5836 5832 5826 5828 5834 5839 5839 5837 5836 5837 5835 5833 5831 5830 5830 5830 5829 5831 5831 5829 5829 5829 5830 5829 5828 5827 5826 5824 5822 5819 5816 5814 5811 5809
5841 5848 5843 5840 5836 5835 5831 5831 5825 5823 5818 5818 5820 5810 5821 5825 5828 5831 5831 5828 5825 5822 5821 5821 5820 5819 5820 5820 5818 5819 5820 5821 5820 5819 5818 5818 5816 5814 5812 5809 5806 5804 5802 5799
5837 5835 5833 5829 5829 5824 5822 5819 5816 5811 5807 5803 5807 5796 5812 5810 5817 5820 5817 5814 5812 5811 5811 5810 5808 5808 5807 5806 5808 5808 5810 5811 5810 5809 5809 5808 5806 5804 5802 5799 5797 5795 5792 5789
5827 5824 5821 5820 5817 5812 5809 5803 5801 5799 5794 5786 5796 5786 5796 5802 5799 5801 5802 5800 5800 5798 5797 5797 5795 5794 5795 5796 5797 5798 5800 5800 5800 5799 5798 5798 5796 5794 5792 5789 5787 5785 5783 5780
5816 5813 5812 5808 5803 5800 5797 5792 5784 5779 5772 5774 5776 5770 5782 5790 5788 5784 5785 5787 5785 5783 5784 5784 5784 5783 5783 5784 5785 5788 5790 5790 5789 5789 5788 5787 5786 5784 5782 5779 5778 5776 5773 5770
5800 5801 5801 5798 5792 5786 5782 5778 5772 5758 5760 5763 5760 5750 5767 5775 5778 5778 5776 5773 5772 5772 5772 5773 5773 5772 5772 5773 5775 5777 5779 5778 5779 5779 5777 5776 5775 5773 5772 5770 5768 5766 5763 5760
5785 5787 5783 5781 5777 5772 5769 5760 5761 5744 5745 5734 5740 5743 5748 5762 5767 5768 5767 5762 5760 5759 5761 5762 5762 5762 5763 5764 5765 5766 5767 5767 5768 5767 5766 5765 5764 5763 5761 5760 5759 5756 5754 5750
5771 5766 5769 5765 5760 5755 5745 5746 5736 5729 5722 5714 5718 5720 5730 5745 5749 5751 5751 5750 5749 5747 5748 5750 5752 5753 5753 5754 5755 5755 5755 5756 5757 5756 5755 5754 5753 5752 5752 5751 5749 5747 5744 5740
5749 5743 5750 5741 5739 5734 5729 5720 5714 5708 5703 5694 5692 5696 5716 5723 5732 5733 5734 5734 5736 5738 5736 5736 5737 5739 5741 5742 5743 5744 5744 5745 5745 5744 5744 5743 5742 5742 5741 5740 5739 5737 5734 5730
5729 5718 5714 5718 5716 5709 5701 5696 5695 5685 5682 5677 5672 5671 5702 5706 5710 5714 5713 5714 5719 5724 5724 5725 5725 5726 5727 5730 5731 5732 5732 5734 5733 5733 5733 5732 5732 5731 5730 5729 5728 5726 5723 5719
5704 5695 5678 5683 5691 5684 5678 5672 5668 5664 5658 5658 5650 5654 5680 5675 5683 5687 5687 5688 5697 5703 5707 5708 5710 5711 5714 5716 5718 5719 5719 5721 5721 5722 5721 5721 5720 5720 5719 5719 5718 5715 5712 5709
5672 5667 5656 5651 5655 5657 5651 5654 5654 5645 5634 5635 5632 5632 5654 5659 5662 5668 5672 5675 5680 5684 5686 5692 5694 5696 5698 5701 5704 5706 5706 5707 5708 5709 5710 5709 5709 5708 5708 5708 5707 5704 5702 5698
5650 5638 5633 5629 5627 5626 5620 5620 5626 5625 5623 5607 5620 5617 5633 5638 5641 5644 5647 5653 5658 5666 5671 5672 5677 5682 5684 5686 5690 5693 5693 5695 5694 5696 5698 5698 5698 5698 5698 5697 5696 5694 5690 5687
5629 5611 5611 5603 5606 5601 5594 5593 5594 5600 5606 5596 5592 5589 5605 5614 5615 5623 5627 5629 5639 5647 5651 5660 5659 5661 5668 5672 5676 5679 5680 5681 5681 5683 5686 5686 5687 5688 5688 5686 5685 5683 5680 5676
5604 5596 5590 5579 5588 5582 5572 5584 5579 5574 5579 5579 5574 5574 5581 5585 5595 5599 5601 5608 5614 5623 5633 5641 5646 5648 5647 5655 5660 5664 5666 5667 5668 5672 5673 5675 5676 5676 5676 5675 5674 5672 5669 5665
5588 5589 5579 5570 5572 5566 5569 5570 5562 5560 5561 5563 5562 5561 5558 5566 5577 5581 5583 5587 5595 5602 5613 5624 5630 5635 5640 5635 5643 5649 5653 5655 5657 5660 5662 5663 5664 5664 5665 5665 5663 5660 5657 5653
5579 5575 5567 5563 5559 5560 5564 5558 5553 5551 5552 5551 5547 5545 5541 5544 5554 5567 5567 5572 5576 5584 5592 5607 5612 5620 5624 5629 5628 5630 5638 5641 5645 5650 5651 5652 5653 5654 5654 5654 5652 5650 5646 5642
5570 5566 5563 5559 5551 5546 5554 5550 5544 5541 5539 5538 5530 5527 5525 5531 5534 5548 5552 5558 5562 5566 5574 5589 5597 5603 5608 5616 5620 5621 5623 5627 5632 5637 5638 5640 5642 5643 5643 5643 5641 5638 5635 5631
5562 5559 5554 5548 5540 5540 5546 5537 5533 5529 5526 5525 5520 5521 5518 5520 5523 5529 5537 5540 5546 5553 5558 5570 5580 5588 5593 5597 5603 5609 5612 5616 5619 5623 5626 5629 5631 5631 5632 5632 5630 5627 5625 5620
5553 5546 5544 5538 5532 5533 5530 5526 5525 5518 5513 5513 5512 5514 5511 5512 5516 5515 5517 5526 5530 5537 5544 5552 5559 5568 5577 5582 5588 5595 5599 5603 5606 5610 5615 5617 5618 5620 5621 5620 5619 5617 5614 5610
5541 5539 5534 5530 5525 5522 5521 5515 5514 5506 5507 5505 5505 5503 5500 5503 5506 5508 5505 5508 5514 5518 5527 5535 5542 5551 5559 5568 5574 5579 5585 5588 5594 5599 5602 5605 5608 5609 5609 5609 5608 5606 5603 5600
5535 5531 5526 5520 5521 5511 5511 5507 5501 5497 5498 5497 5495 5493 5492 5492 5495 5498 5496 5497 5503 5506 5514 5523 5527 5535 5545 5553 5559 5565 5571 5577 5582 5586 5591 5594 5596 5598 5598 5597 5596 5594 5592 5590
5529 5523 5518 5513 5509 5505 5505 5500 5495 5492 5488 5486 5484 5483 5482 5484 5485 5484 5487 5485 5491 5499 5501 5507 5515 5523 5532 5540 5545 5553 5559 5564 5570 5575 5579 5582 5584 5585 5586 5585 5584 5583 5582 5579
5520 5515 5509 5503 5501 5496 5497 5493 5487 5484 5481 5477 5473 5472 5472 5471 5473 5473 5479 5476 5480 5487 5491 5493 5503 5513 5522 5528 5534 5544 5551 5556 5561 5564 5568 5570 5572 5574 5574 5574 5573 5572 5570 5567